Location: Anan
(43.3550°N, 0.8171°E)
Time: 05:08:41
(UTC+00:00)

Cosmos 909 Rocket - Pass Details

Date: 14 May 2026
Orbit: 989 x 2090 km, 65.9° (Epoch: 6 June)

Event Time Altitude Azimuth Distance (km) Brightness Sun altitude
Rises 20:48:32 0° 220° (SW) 3,811 7.0 -14.8°
Reaches altitude 10° 20:51:12 10° 223° (SW) 2,798 6.4 -15.2°
Maximum altitude 20:57:30 67° 306° (NW) 1,069 4.4 -15.9°
Drops below altitude 10° 21:03:54 10° 29° (NNE) 2,841 6.7 -16.7°
Sets 21:06:38 0° 32° (NNE) 3,874 7.4 -17.1°
